Location: Northam
(31.6525°S, 116.6655°E)
Time: 05:26:53
(UTC+08:00)

Transit 2A - Visible Passes

Search period start: 14 June 2021 00:00
Search period end: 24 June 2021 00:00
Orbit: 601 x 958 km, 66.7° (Epoch: 13 June)

Date Brightness Start Highest point End Pass type
(mag) Time Alt. Az. Time Alt. Az. Time Alt. Az.
14 Jun 9.1 04:06:53 10° NE 04:10:18 15° ENE 04:13:47 10° ESE visible
14 Jun 6.4 05:46:41 10° NNW 05:52:50 70° WSW 05:59:15 10° SSE visible
15 Jun 6.5 05:12:28 10° NNW 05:18:39 82° ENE 05:25:04 10° SSE visible
16 Jun 7.0 04:38:31 10° N 04:44:31 56° ENE 04:50:45 10° SE visible
16 Jun 7.5 06:23:17 10° WNW 06:28:07 23° SW 06:33:03 10° S visible
17 Jun 7.6 04:09:42 37° NE 04:10:27 38° ENE 04:16:16 10° SE visible
17 Jun 7.1 05:50:25 20° WNW 05:53:43 32° WSW 05:59:21 10° S visible
18 Jun 8.6 03:39:03 20° ESE 03:39:03 20° ESE 03:41:32 10° SE visible
18 Jun 6.7 05:19:40 45° SW 05:19:40 45° SW 05:25:29 10° SSE visible
19 Jun 7.5 04:48:04 33° S 04:48:04 33° S 04:51:28 10° SSE visible
19 Jun 8.2 06:28:38 10° SW 06:29:31 10° SW 06:30:33 10° SW visible
20 Jun 8.5 04:15:59 17° SSE 04:15:59 17° SSE 04:17:20 10° SSE visible
20 Jun 8.1 05:56:33 14° SSW 05:56:33 14° SSW 05:58:28 10° SSW visible
21 Jun 8.4 05:24:09 13° SSW 05:24:09 13° SSW 05:25:10 10° S visible
